Year,Month,Day,Hour,Minute,Value (Times are PST for temperature in C)
2017,08,30,00,00,20.70
2017,08,30,00,01,20.70
2017,08,30,00,02,20.70
2017,08,30,00,03,20.60
2017,08,30,00,04,20.60
2017,08,30,00,05,20.50
2017,08,30,00,06,20.50
2017,08,30,00,07,20.40
2017,08,30,00,08,20.30
2017,08,30,00,09,20.30
2017,08,30,00,10,20.20
2017,08,30,00,11,20.20
2017,08,30,00,12,20.10
2017,08,30,00,13,20.00
2017,08,30,00,14,20.00
2017,08,30,00,15,19.90
2017,08,30,00,16,19.90
2017,08,30,00,17,19.90
2017,08,30,00,18,19.80
2017,08,30,00,19,19.80
2017,08,30,00,20,19.80
2017,08,30,00,21,19.80
2017,08,30,00,22,19.80
2017,08,30,00,23,19.80
2017,08,30,00,24,19.80
2017,08,30,00,25,19.80
2017,08,30,00,26,19.80
2017,08,30,00,27,19.80
2017,08,30,00,28,19.80
2017,08,30,00,29,19.70
2017,08,30,00,30,19.70
2017,08,30,00,31,19.70
2017,08,30,00,32,19.70
2017,08,30,00,33,19.60
2017,08,30,00,34,19.60
2017,08,30,00,35,19.60
2017,08,30,00,36,19.60
2017,08,30,00,37,19.60
2017,08,30,00,38,19.60
2017,08,30,00,39,19.60
2017,08,30,00,40,19.60
2017,08,30,00,41,19.60
2017,08,30,00,42,19.60
2017,08,30,00,43,19.60
2017,08,30,00,44,19.60
2017,08,30,00,45,19.60
2017,08,30,00,46,19.60
2017,08,30,00,47,19.60
2017,08,30,00,48,19.60
2017,08,30,00,49,19.50
2017,08,30,00,50,19.40
2017,08,30,00,51,19.30
2017,08,30,00,52,19.30
2017,08,30,00,53,19.20
2017,08,30,00,54,19.20
2017,08,30,00,55,19.20
2017,08,30,00,56,19.10
2017,08,30,00,57,19.10
2017,08,30,00,58,19.10
2017,08,30,00,59,19.10
2017,08,30,01,00,19.00
2017,08,30,01,01,19.00
2017,08,30,01,02,18.90
2017,08,30,01,03,18.90
2017,08,30,01,04,18.80
2017,08,30,01,05,18.80
2017,08,30,01,06,18.70
2017,08,30,01,07,18.70
2017,08,30,01,08,18.70
2017,08,30,01,09,18.70
2017,08,30,01,10,18.60
2017,08,30,01,11,18.60
2017,08,30,01,12,18.60
2017,08,30,01,13,18.60
2017,08,30,01,14,18.60
2017,08,30,01,15,18.60
2017,08,30,01,16,18.70
2017,08,30,01,17,18.70
2017,08,30,01,18,18.70
2017,08,30,01,19,18.80
2017,08,30,01,20,18.80
2017,08,30,01,21,18.80
2017,08,30,01,22,18.80
2017,08,30,01,23,18.80
2017,08,30,01,24,18.80
2017,08,30,01,25,18.80
2017,08,30,01,26,18.80
2017,08,30,01,27,18.80
2017,08,30,01,28,18.80
2017,08,30,01,29,18.80
2017,08,30,01,30,18.80
2017,08,30,01,31,18.80
2017,08,30,01,32,18.80
2017,08,30,01,33,18.80
2017,08,30,01,34,18.80
2017,08,30,01,35,18.80
2017,08,30,01,36,18.80
2017,08,30,01,37,18.90
2017,08,30,01,38,18.90
2017,08,30,01,39,19.00
2017,08,30,01,40,19.00
2017,08,30,01,41,19.10
2017,08,30,01,42,19.10
2017,08,30,01,43,19.10
2017,08,30,01,44,19.10
2017,08,30,01,45,19.10
2017,08,30,01,46,19.10
2017,08,30,01,47,19.10
2017,08,30,01,48,19.10
2017,08,30,01,49,19.10
2017,08,30,01,50,19.00
2017,08,30,01,51,19.00
2017,08,30,01,52,18.90
2017,08,30,01,53,18.90
2017,08,30,01,54,18.80
2017,08,30,01,55,18.80
2017,08,30,01,56,18.80
2017,08,30,01,57,18.70
2017,08,30,01,58,18.70
2017,08,30,01,59,18.60
2017,08,30,02,00,18.60
2017,08,30,02,01,18.60
2017,08,30,02,02,18.50
2017,08,30,02,03,18.50
2017,08,30,02,04,18.50
2017,08,30,02,05,18.50
2017,08,30,02,06,18.50
2017,08,30,02,07,18.50
2017,08,30,02,08,18.50
2017,08,30,02,09,18.50
2017,08,30,02,10,18.50
2017,08,30,02,11,18.60
2017,08,30,02,12,18.60
2017,08,30,02,13,18.60
2017,08,30,02,14,18.60
2017,08,30,02,15,18.60
2017,08,30,02,16,18.60
2017,08,30,02,17,18.60
2017,08,30,02,18,18.60
2017,08,30,02,19,18.60
2017,08,30,02,20,18.60
2017,08,30,02,21,18.60
2017,08,30,02,22,18.60
2017,08,30,02,23,18.70
2017,08,30,02,24,18.70
2017,08,30,02,25,18.70
2017,08,30,02,26,18.70
2017,08,30,02,27,18.80
2017,08,30,02,28,18.80
2017,08,30,02,29,18.80
2017,08,30,02,30,18.80
2017,08,30,02,31,18.80
2017,08,30,02,32,18.70
2017,08,30,02,33,18.70
2017,08,30,02,34,18.70
2017,08,30,02,35,18.70
2017,08,30,02,36,18.60
2017,08,30,02,37,18.60
2017,08,30,02,38,18.60
2017,08,30,02,39,18.60
2017,08,30,02,40,18.60
2017,08,30,02,41,18.60
2017,08,30,02,42,18.50
2017,08,30,02,43,18.50
2017,08,30,02,44,18.40
2017,08,30,02,45,18.40
2017,08,30,02,46,18.40
2017,08,30,02,47,18.30
2017,08,30,02,48,18.30
2017,08,30,02,49,18.30
2017,08,30,02,50,18.30
2017,08,30,02,51,18.20
2017,08,30,02,52,18.20
2017,08,30,02,53,18.20
2017,08,30,02,54,18.20
2017,08,30,02,55,18.10
2017,08,30,02,56,18.10
2017,08,30,02,57,18.00
2017,08,30,02,58,18.00
2017,08,30,02,59,18.00
2017,08,30,03,00,17.90
2017,08,30,03,01,17.90
2017,08,30,03,02,17.90
2017,08,30,03,03,17.90
2017,08,30,03,04,17.90
2017,08,30,03,05,17.90
2017,08,30,03,06,17.90
2017,08,30,03,07,17.90
2017,08,30,03,08,17.90
2017,08,30,03,09,17.90
2017,08,30,03,10,17.90
2017,08,30,03,11,17.90
2017,08,30,03,12,17.90
2017,08,30,03,13,17.90
2017,08,30,03,14,17.90
2017,08,30,03,15,17.90
2017,08,30,03,16,17.90
2017,08,30,03,17,17.90
2017,08,30,03,18,17.90
2017,08,30,03,19,17.90
2017,08,30,03,20,17.90
2017,08,30,03,21,17.90
2017,08,30,03,22,17.90
2017,08,30,03,23,18.00
2017,08,30,03,24,18.00
2017,08,30,03,25,18.00
2017,08,30,03,26,18.00
2017,08,30,03,27,17.90
2017,08,30,03,28,17.90
2017,08,30,03,29,17.90
2017,08,30,03,30,17.90
2017,08,30,03,31,17.80
2017,08,30,03,32,17.80
2017,08,30,03,33,17.80
2017,08,30,03,34,17.70
2017,08,30,03,35,17.70
2017,08,30,03,36,17.60
2017,08,30,03,37,17.60
2017,08,30,03,38,17.50
2017,08,30,03,39,17.50
2017,08,30,03,40,17.40
2017,08,30,03,41,17.30
2017,08,30,03,42,17.20
2017,08,30,03,43,17.20
2017,08,30,03,44,17.20
2017,08,30,03,45,17.10
2017,08,30,03,46,17.10
2017,08,30,03,47,17.00
2017,08,30,03,48,17.00
2017,08,30,03,49,16.90
2017,08,30,03,50,16.80
2017,08,30,03,51,16.80
2017,08,30,03,52,16.70
2017,08,30,03,53,16.70
2017,08,30,03,54,16.70
2017,08,30,03,55,16.70
2017,08,30,03,56,16.70
2017,08,30,03,57,16.60
2017,08,30,03,58,16.60
2017,08,30,03,59,16.60
2017,08,30,04,00,16.60
2017,08,30,04,01,16.60
2017,08,30,04,02,16.60
2017,08,30,04,03,16.60
2017,08,30,04,04,16.60
2017,08,30,04,05,16.60
2017,08,30,04,06,16.60
2017,08,30,04,07,16.60
2017,08,30,04,08,16.60
2017,08,30,04,09,16.60
2017,08,30,04,10,16.60
2017,08,30,04,11,16.60
2017,08,30,04,12,16.60
2017,08,30,04,13,16.60
2017,08,30,04,14,16.60
2017,08,30,04,15,16.60
2017,08,30,04,16,16.60
2017,08,30,04,17,16.60
2017,08,30,04,18,16.60
2017,08,30,04,19,16.60
2017,08,30,04,20,16.70
2017,08,30,04,21,16.70
2017,08,30,04,22,16.70
2017,08,30,04,23,16.80
2017,08,30,04,24,16.80
2017,08,30,04,25,16.80
2017,08,30,04,26,16.80
2017,08,30,04,27,16.80
2017,08,30,04,28,16.80
2017,08,30,04,29,16.80
2017,08,30,04,30,16.80
2017,08,30,04,31,16.70
2017,08,30,04,32,16.70
2017,08,30,04,33,16.70
2017,08,30,04,34,16.60
2017,08,30,04,35,16.60
2017,08,30,04,36,16.60
2017,08,30,04,37,16.60
2017,08,30,04,38,16.50
2017,08,30,04,39,16.50
2017,08,30,04,40,16.50
2017,08,30,04,41,16.50
2017,08,30,04,42,16.40
2017,08,30,04,43,16.40
2017,08,30,04,44,16.40
2017,08,30,04,45,16.40
2017,08,30,04,46,16.40
2017,08,30,04,47,16.40
2017,08,30,04,48,16.40
2017,08,30,04,49,16.40
2017,08,30,04,50,16.40
2017,08,30,04,51,16.40
2017,08,30,04,52,16.50
2017,08,30,04,53,16.50
2017,08,30,04,54,16.50
2017,08,30,04,55,16.50
2017,08,30,04,56,16.50
2017,08,30,04,57,16.60
2017,08,30,04,58,16.60
2017,08,30,04,59,16.60
2017,08,30,05,00,16.60
2017,08,30,05,01,16.60
2017,08,30,05,02,16.60
2017,08,30,05,03,16.60
2017,08,30,05,04,16.60
2017,08,30,05,05,16.60
2017,08,30,05,06,16.60
2017,08,30,05,07,16.60
2017,08,30,05,08,16.60
2017,08,30,05,09,16.70
2017,08,30,05,10,16.70
2017,08,30,05,11,16.70
2017,08,30,05,12,16.80
2017,08,30,05,13,16.80
2017,08,30,05,14,16.80
2017,08,30,05,15,16.80
2017,08,30,05,16,16.80
2017,08,30,05,17,16.80
2017,08,30,05,18,16.90
2017,08,30,05,19,16.90
2017,08,30,05,20,16.90
2017,08,30,05,21,16.90
2017,08,30,05,22,16.90
2017,08,30,05,23,16.90
2017,08,30,05,24,16.90
2017,08,30,05,25,16.90
2017,08,30,05,26,16.90
2017,08,30,05,27,16.90
2017,08,30,05,28,16.90
2017,08,30,05,29,16.90
2017,08,30,05,30,16.90
2017,08,30,05,31,16.90
2017,08,30,05,32,16.90
2017,08,30,05,33,16.90
2017,08,30,05,34,17.00
2017,08,30,05,35,17.00
2017,08,30,05,36,17.00
2017,08,30,05,37,17.00
2017,08,30,05,38,17.00
2017,08,30,05,39,17.00
2017,08,30,05,40,17.00
2017,08,30,05,41,17.00
2017,08,30,05,42,17.00
2017,08,30,05,43,16.90
2017,08,30,05,44,16.90
2017,08,30,05,45,16.90
2017,08,30,05,46,16.90
2017,08,30,05,47,16.90
2017,08,30,05,48,16.90
2017,08,30,05,49,16.90
2017,08,30,05,50,16.90
2017,08,30,05,51,16.90
2017,08,30,05,52,17.00
2017,08,30,05,53,17.00
2017,08,30,05,54,16.90
2017,08,30,05,55,17.00
2017,08,30,05,56,17.00
2017,08,30,05,57,17.00
2017,08,30,05,58,17.00
2017,08,30,05,59,17.10
2017,08,30,06,00,17.10
2017,08,30,06,01,17.10
2017,08,30,06,02,17.10
2017,08,30,06,03,17.20
2017,08,30,06,04,17.20
2017,08,30,06,05,17.20
2017,08,30,06,06,17.20
2017,08,30,06,07,17.20
2017,08,30,06,08,17.20
2017,08,30,06,09,17.20
2017,08,30,06,10,17.20
2017,08,30,06,11,17.20
2017,08,30,06,12,17.20
2017,08,30,06,13,17.10
2017,08,30,06,14,17.10
2017,08,30,06,15,17.10
2017,08,30,06,16,17.10
2017,08,30,06,17,17.10
2017,08,30,06,18,17.10
2017,08,30,06,19,17.10
2017,08,30,06,20,17.00
2017,08,30,06,21,17.00
2017,08,30,06,22,17.00
2017,08,30,06,23,17.00
2017,08,30,06,24,17.00
2017,08,30,06,25,17.00
2017,08,30,06,26,16.90
2017,08,30,06,27,16.90
2017,08,30,06,28,16.90
2017,08,30,06,29,16.90
2017,08,30,06,30,16.80
2017,08,30,06,31,16.80
2017,08,30,06,32,16.80
2017,08,30,06,33,16.70
2017,08,30,06,34,16.60
2017,08,30,06,35,16.60
2017,08,30,06,36,16.50
2017,08,30,06,37,16.50
2017,08,30,06,38,16.40
2017,08,30,06,39,16.40
2017,08,30,06,40,16.30
2017,08,30,06,41,16.20
2017,08,30,06,42,16.20
2017,08,30,06,43,16.20
2017,08,30,06,44,16.20
2017,08,30,06,45,16.20
2017,08,30,06,46,16.20
2017,08,30,06,47,16.20
2017,08,30,06,48,16.30
2017,08,30,06,49,16.30
2017,08,30,06,50,16.30
2017,08,30,06,51,16.30
2017,08,30,06,52,16.30
2017,08,30,06,53,16.30
2017,08,30,06,54,16.30
2017,08,30,06,55,16.30
2017,08,30,06,56,16.30
2017,08,30,06,57,16.40
2017,08,30,06,58,16.40
2017,08,30,06,59,16.40
2017,08,30,07,00,16.40
2017,08,30,07,01,16.50
2017,08,30,07,02,16.60
2017,08,30,07,03,16.60
2017,08,30,07,04,16.60
2017,08,30,07,05,16.70
2017,08,30,07,06,16.70
2017,08,30,07,07,16.70
2017,08,30,07,08,16.70
2017,08,30,07,09,16.80
2017,08,30,07,10,16.80
2017,08,30,07,11,16.80
2017,08,30,07,12,16.90
2017,08,30,07,13,16.90
2017,08,30,07,14,16.90
2017,08,30,07,15,16.90
2017,08,30,07,16,16.90
2017,08,30,07,17,16.90
2017,08,30,07,18,16.90
2017,08,30,07,19,16.90
2017,08,30,07,20,16.90
2017,08,30,07,21,16.90
2017,08,30,07,22,16.90
2017,08,30,07,23,16.90
2017,08,30,07,24,16.90
2017,08,30,07,25,16.80
2017,08,30,07,26,16.90
2017,08,30,07,27,16.80
2017,08,30,07,28,16.90
2017,08,30,07,29,16.80
2017,08,30,07,30,16.90
2017,08,30,07,31,16.90
2017,08,30,07,32,16.90
2017,08,30,07,33,16.90
2017,08,30,07,34,17.00
2017,08,30,07,35,17.00
2017,08,30,07,36,17.00
2017,08,30,07,37,17.10
2017,08,30,07,38,17.10
2017,08,30,07,39,17.20
2017,08,30,07,40,17.20
2017,08,30,07,41,17.30
2017,08,30,07,42,17.30
2017,08,30,07,43,17.40
2017,08,30,07,44,17.40
2017,08,30,07,45,17.40
2017,08,30,07,46,17.40
2017,08,30,07,47,17.40
2017,08,30,07,48,17.40
2017,08,30,07,49,17.30
2017,08,30,07,50,17.30
2017,08,30,07,51,17.30
2017,08,30,07,52,17.30
2017,08,30,07,53,17.40
2017,08,30,07,54,17.40
2017,08,30,07,55,17.40
2017,08,30,07,56,17.50
2017,08,30,07,57,17.50
2017,08,30,07,58,17.60
2017,08,30,07,59,17.60
2017,08,30,08,00,17.60
2017,08,30,08,01,17.60
2017,08,30,08,02,17.60
2017,08,30,08,03,17.60
2017,08,30,08,04,17.60
2017,08,30,08,05,17.60
2017,08,30,08,06,17.70
2017,08,30,08,07,17.70
2017,08,30,08,08,17.70
2017,08,30,08,09,17.70
2017,08,30,08,10,17.80
2017,08,30,08,11,17.80
2017,08,30,08,12,17.80
2017,08,30,08,13,17.80
2017,08,30,08,14,17.70
2017,08,30,08,15,17.70
2017,08,30,08,16,17.70
2017,08,30,08,17,17.70
2017,08,30,08,18,17.70
2017,08,30,08,19,17.70
2017,08,30,08,20,17.70
2017,08,30,08,21,17.70
2017,08,30,08,22,17.70
2017,08,30,08,23,17.80
2017,08,30,08,24,17.80
2017,08,30,08,25,17.70
2017,08,30,08,26,17.80
2017,08,30,08,27,17.80
2017,08,30,08,28,17.80
2017,08,30,08,29,17.80
2017,08,30,08,30,17.80
2017,08,30,08,31,17.80
2017,08,30,08,32,17.80
2017,08,30,08,33,17.80
2017,08,30,08,34,17.80
2017,08,30,08,35,17.90
2017,08,30,08,36,17.90
2017,08,30,08,37,17.90
2017,08,30,08,38,17.90
2017,08,30,08,39,17.90
2017,08,30,08,40,17.90
2017,08,30,08,41,17.90
2017,08,30,08,42,17.80
2017,08,30,08,43,17.80
2017,08,30,08,44,17.90
2017,08,30,08,45,17.90
2017,08,30,08,46,18.00
2017,08,30,08,47,18.00
2017,08,30,08,48,18.20
2017,08,30,08,49,18.20
2017,08,30,08,50,18.20
2017,08,30,08,51,18.30
2017,08,30,08,52,18.30
2017,08,30,08,53,18.30
2017,08,30,08,54,18.20
2017,08,30,08,55,18.20
2017,08,30,08,56,18.20
2017,08,30,08,57,18.30
2017,08,30,08,58,18.30
2017,08,30,08,59,18.40
2017,08,30,09,00,18.40
2017,08,30,09,01,18.40
2017,08,30,09,02,18.40
2017,08,30,09,03,18.40
2017,08,30,09,04,18.40
2017,08,30,09,05,18.40
2017,08,30,09,06,18.40
2017,08,30,09,07,18.40
2017,08,30,09,08,18.40
2017,08,30,09,09,18.40
2017,08,30,09,10,18.40
2017,08,30,09,11,18.40
2017,08,30,09,12,18.40
2017,08,30,09,13,18.40
2017,08,30,09,14,18.40
2017,08,30,09,15,18.50
2017,08,30,09,16,18.50
2017,08,30,09,17,18.50
2017,08,30,09,18,18.60
2017,08,30,09,19,18.60
2017,08,30,09,20,18.60
2017,08,30,09,21,18.60
2017,08,30,09,22,18.70
2017,08,30,09,23,18.70
2017,08,30,09,24,18.70
2017,08,30,09,25,18.70
2017,08,30,09,26,18.70
2017,08,30,09,27,18.70
2017,08,30,09,28,18.80
2017,08,30,09,29,18.90
2017,08,30,09,30,18.90
2017,08,30,09,31,18.90
2017,08,30,09,32,18.80
2017,08,30,09,33,18.90
2017,08,30,09,34,18.90
2017,08,30,09,35,19.00
2017,08,30,09,36,19.00
2017,08,30,09,37,19.00
2017,08,30,09,38,18.90
2017,08,30,09,39,18.90
2017,08,30,09,40,18.90
2017,08,30,09,41,18.90
2017,08,30,09,42,18.80
2017,08,30,09,43,18.80
2017,08,30,09,44,18.80
2017,08,30,09,45,18.80
2017,08,30,09,46,18.80
2017,08,30,09,47,18.80
2017,08,30,09,48,18.80
2017,08,30,09,49,18.70
2017,08,30,09,50,18.70
2017,08,30,09,51,18.60
2017,08,30,09,52,18.70
2017,08,30,09,53,18.70
2017,08,30,09,54,18.80
2017,08,30,09,55,18.70
2017,08,30,09,56,18.70
2017,08,30,09,57,18.70
2017,08,30,09,58,18.70
2017,08,30,09,59,18.70
2017,08,30,10,00,18.60
2017,08,30,10,01,18.50
2017,08,30,10,02,18.50
2017,08,30,10,03,18.50
2017,08,30,10,04,18.60
2017,08,30,10,05,18.60
2017,08,30,10,06,18.60
2017,08,30,10,07,18.50
2017,08,30,10,08,18.50
2017,08,30,10,09,18.50
2017,08,30,10,10,18.50
2017,08,30,10,11,18.40
2017,08,30,10,12,18.40
2017,08,30,10,13,18.30
2017,08,30,10,14,18.30
2017,08,30,10,15,18.30
2017,08,30,10,16,18.30
2017,08,30,10,17,18.30
2017,08,30,10,18,18.30
2017,08,30,10,19,18.30
2017,08,30,10,20,18.30
2017,08,30,10,21,18.30
2017,08,30,10,22,18.40
2017,08,30,10,23,18.40
2017,08,30,10,24,18.40
2017,08,30,10,25,18.30
2017,08,30,10,26,18.30
2017,08,30,10,27,18.30
2017,08,30,10,28,18.30
2017,08,30,10,29,18.20
2017,08,30,10,30,18.20
2017,08,30,10,31,18.20
2017,08,30,10,32,18.20
2017,08,30,10,33,18.20
2017,08,30,10,34,18.30
2017,08,30,10,35,18.30
2017,08,30,10,36,18.40
2017,08,30,10,37,18.40
2017,08,30,10,38,18.40
2017,08,30,10,39,18.40
2017,08,30,10,40,18.40
2017,08,30,10,41,18.40
2017,08,30,10,42,18.40
2017,08,30,10,43,18.40
2017,08,30,10,44,18.40
2017,08,30,10,45,18.40
2017,08,30,10,46,18.50
2017,08,30,10,47,18.50
2017,08,30,10,48,18.50
2017,08,30,10,49,18.50
2017,08,30,10,50,18.60
2017,08,30,10,51,18.60
2017,08,30,10,52,18.60
2017,08,30,10,53,18.60
2017,08,30,10,54,18.60
2017,08,30,10,55,18.50
2017,08,30,10,56,18.40
2017,08,30,10,57,18.40
2017,08,30,10,58,18.30
2017,08,30,10,59,18.20
2017,08,30,11,00,18.20
2017,08,30,11,01,18.10
2017,08,30,11,02,18.10
2017,08,30,11,03,18.00
2017,08,30,11,04,18.00
2017,08,30,11,05,17.90
2017,08,30,11,06,18.00
2017,08,30,11,07,18.10
2017,08,30,11,08,18.20
2017,08,30,11,09,18.20
2017,08,30,11,10,18.20
2017,08,30,11,11,18.30
2017,08,30,11,12,18.40
2017,08,30,11,13,18.40
2017,08,30,11,14,18.40
2017,08,30,11,15,18.40
2017,08,30,11,16,18.50
2017,08,30,11,17,18.60
2017,08,30,11,18,18.70
2017,08,30,11,19,18.90
2017,08,30,11,20,19.00
2017,08,30,11,21,19.10
2017,08,30,11,22,19.20
2017,08,30,11,23,19.30
2017,08,30,11,24,19.50
2017,08,30,11,25,19.50
2017,08,30,11,26,19.50
2017,08,30,11,27,19.40
2017,08,30,11,28,19.40
2017,08,30,11,29,19.30
2017,08,30,11,30,19.30
2017,08,30,11,31,19.20
2017,08,30,11,32,19.10
2017,08,30,11,33,18.90
2017,08,30,11,34,18.90
2017,08,30,11,35,18.80
2017,08,30,11,36,18.70
2017,08,30,11,37,18.70
2017,08,30,11,38,18.60
2017,08,30,11,39,18.60
2017,08,30,11,40,18.60
2017,08,30,11,41,18.60
2017,08,30,11,42,18.70
2017,08,30,11,43,18.70
2017,08,30,11,44,18.80
2017,08,30,11,45,18.80
2017,08,30,11,46,18.80
2017,08,30,11,47,18.70
2017,08,30,11,48,18.70
2017,08,30,11,49,18.70
2017,08,30,11,50,18.60
2017,08,30,11,51,18.60
2017,08,30,11,52,18.60
2017,08,30,11,53,18.60
2017,08,30,11,54,18.60
2017,08,30,11,55,18.60
2017,08,30,11,56,18.60
2017,08,30,11,57,18.50
2017,08,30,11,58,18.40
2017,08,30,11,59,18.50
2017,08,30,12,00,18.50
2017,08,30,12,01,18.50
2017,08,30,12,02,18.50
2017,08,30,12,03,18.60
2017,08,30,12,04,18.60
2017,08,30,12,05,18.60
2017,08,30,12,06,18.60
2017,08,30,12,07,18.70
2017,08,30,12,08,18.70
2017,08,30,12,09,18.80
2017,08,30,12,10,18.80
2017,08,30,12,11,18.90
2017,08,30,12,12,18.90
2017,08,30,12,13,18.90
2017,08,30,12,14,18.90
2017,08,30,12,15,18.90
2017,08,30,12,16,19.00
2017,08,30,12,17,19.00
2017,08,30,12,18,19.10
2017,08,30,12,19,19.20
2017,08,30,12,20,19.20
2017,08,30,12,21,19.10
2017,08,30,12,22,19.10
2017,08,30,12,23,19.00
2017,08,30,12,24,18.90
2017,08,30,12,25,18.80
2017,08,30,12,26,18.80
2017,08,30,12,27,18.70
2017,08,30,12,28,18.70
2017,08,30,12,29,18.60
2017,08,30,12,30,18.60
2017,08,30,12,31,18.60
2017,08,30,12,32,18.60
2017,08,30,12,33,18.50
2017,08,30,12,34,18.60
2017,08,30,12,35,18.60
2017,08,30,12,36,18.60
2017,08,30,12,37,18.60
2017,08,30,12,38,18.60
2017,08,30,12,39,18.60
2017,08,30,12,40,18.60
2017,08,30,12,41,18.60
2017,08,30,12,42,18.60
2017,08,30,12,43,18.60
2017,08,30,12,44,18.60
2017,08,30,12,45,18.60
2017,08,30,12,46,18.50
2017,08,30,12,47,18.50
2017,08,30,12,48,18.40
2017,08,30,12,49,18.40
2017,08,30,12,50,18.40
2017,08,30,12,51,18.30
2017,08,30,12,52,18.30
2017,08,30,12,53,18.40
2017,08,30,12,54,18.40
2017,08,30,12,55,18.40
2017,08,30,12,56,18.40
2017,08,30,12,57,18.40
2017,08,30,12,58,18.40
2017,08,30,12,59,18.40
2017,08,30,13,00,18.50
2017,08,30,13,01,18.50
2017,08,30,13,02,18.60
2017,08,30,13,03,18.60
2017,08,30,13,04,18.50
2017,08,30,13,05,18.50
2017,08,30,13,06,18.60
2017,08,30,13,07,18.60
2017,08,30,13,08,18.60
2017,08,30,13,09,18.60
2017,08,30,13,10,18.60
2017,08,30,13,11,18.60
2017,08,30,13,12,18.60
2017,08,30,13,13,18.60
2017,08,30,13,14,18.60
2017,08,30,13,15,18.60
2017,08,30,13,16,18.50
2017,08,30,13,17,18.50
2017,08,30,13,18,18.50
2017,08,30,13,19,18.40
2017,08,30,13,20,18.50
2017,08,30,13,21,18.50
2017,08,30,13,22,18.40
2017,08,30,13,23,18.40
2017,08,30,13,24,18.40
2017,08,30,13,25,18.50
2017,08,30,13,26,18.40
2017,08,30,13,27,18.40
2017,08,30,13,28,18.40
2017,08,30,13,29,18.40
2017,08,30,13,30,18.40
2017,08,30,13,31,18.40
2017,08,30,13,32,18.50
2017,08,30,13,33,18.50
2017,08,30,13,34,18.60
2017,08,30,13,35,18.60
2017,08,30,13,36,18.60
2017,08,30,13,37,18.70
2017,08,30,13,38,18.70
2017,08,30,13,39,18.70
2017,08,30,13,40,18.70
2017,08,30,13,41,18.80
2017,08,30,13,42,18.90
2017,08,30,13,43,18.90
2017,08,30,13,44,18.90
2017,08,30,13,45,18.90
2017,08,30,13,46,18.90
2017,08,30,13,47,18.90
2017,08,30,13,48,18.80
2017,08,30,13,49,18.80
2017,08,30,13,50,18.70
2017,08,30,13,51,18.60
2017,08,30,13,52,18.70
2017,08,30,13,53,18.60
2017,08,30,13,54,18.70
2017,08,30,13,55,18.70
2017,08,30,13,56,18.70
2017,08,30,13,57,18.80
2017,08,30,13,58,18.80
2017,08,30,13,59,18.90
2017,08,30,14,00,19.00
2017,08,30,14,01,19.00
2017,08,30,14,02,19.00
2017,08,30,14,03,19.10
2017,08,30,14,04,19.20
2017,08,30,14,05,19.20
2017,08,30,14,06,19.20
2017,08,30,14,07,19.20
2017,08,30,14,08,19.20
2017,08,30,14,09,19.20
2017,08,30,14,10,19.20
2017,08,30,14,11,19.20
2017,08,30,14,12,19.20
2017,08,30,14,13,19.20
2017,08,30,14,14,19.20
2017,08,30,14,15,19.20
2017,08,30,14,16,19.20
2017,08,30,14,17,19.20
2017,08,30,14,18,19.20
2017,08,30,14,19,19.30
2017,08,30,14,20,19.30
2017,08,30,14,21,19.30
2017,08,30,14,22,19.30
2017,08,30,14,23,19.20
2017,08,30,14,24,19.20
2017,08,30,14,25,19.30
2017,08,30,14,26,19.40
2017,08,30,14,27,19.40
2017,08,30,14,28,19.50
2017,08,30,14,29,19.60
2017,08,30,14,30,19.60
2017,08,30,14,31,19.70
2017,08,30,14,32,19.70
2017,08,30,14,33,19.90
2017,08,30,14,34,20.00
2017,08,30,14,35,20.20
2017,08,30,14,36,20.30
2017,08,30,14,37,20.40
2017,08,30,14,38,20.40
2017,08,30,14,39,20.50
2017,08,30,14,40,20.50
2017,08,30,14,41,20.60
2017,08,30,14,42,20.60
2017,08,30,14,43,20.60
2017,08,30,14,44,20.70
2017,08,30,14,45,20.80
2017,08,30,14,46,20.80
2017,08,30,14,47,20.90
2017,08,30,14,48,21.00
2017,08,30,14,49,21.00
2017,08,30,14,50,20.90
2017,08,30,14,51,20.90
2017,08,30,14,52,20.90
2017,08,30,14,53,20.80
2017,08,30,14,54,20.80
2017,08,30,14,55,20.80
2017,08,30,14,56,20.90
2017,08,30,14,57,20.90
2017,08,30,14,58,20.80
2017,08,30,14,59,20.90
2017,08,30,15,00,20.90
2017,08,30,15,01,20.90
2017,08,30,15,02,20.90
2017,08,30,15,03,20.90
2017,08,30,15,04,20.90
2017,08,30,15,05,20.80
2017,08,30,15,06,20.90
2017,08,30,15,07,20.90
2017,08,30,15,08,21.00
2017,08,30,15,09,21.00
2017,08,30,15,10,21.00
2017,08,30,15,11,20.90
2017,08,30,15,12,20.90
2017,08,30,15,13,20.90
2017,08,30,15,14,20.90
2017,08,30,15,15,20.90
2017,08,30,15,16,20.80
2017,08,30,15,17,20.80
2017,08,30,15,18,20.80
2017,08,30,15,19,20.80
2017,08,30,15,20,20.70
2017,08,30,15,21,20.60
2017,08,30,15,22,20.40
2017,08,30,15,23,20.30
2017,08,30,15,24,20.20
2017,08,30,15,25,20.20
2017,08,30,15,26,20.10
2017,08,30,15,27,20.10
2017,08,30,15,28,20.00
2017,08,30,15,29,20.00
2017,08,30,15,30,19.90
2017,08,30,15,31,19.90
2017,08,30,15,32,19.90
2017,08,30,15,33,19.90
2017,08,30,15,34,19.90
2017,08,30,15,35,19.90
2017,08,30,15,36,19.80
2017,08,30,15,37,19.70
2017,08,30,15,38,19.60
2017,08,30,15,39,19.60
2017,08,30,15,40,19.50
2017,08,30,15,41,19.50
2017,08,30,15,42,19.60
2017,08,30,15,43,19.60
2017,08,30,15,44,19.60
2017,08,30,15,45,19.70
2017,08,30,15,46,19.70
2017,08,30,15,47,19.80
2017,08,30,15,48,19.80
2017,08,30,15,49,19.80
2017,08,30,15,50,19.80
2017,08,30,15,51,19.80
2017,08,30,15,52,19.80
2017,08,30,15,53,19.90
2017,08,30,15,54,20.00
2017,08,30,15,55,20.10
2017,08,30,15,56,20.20
2017,08,30,15,57,20.30
2017,08,30,15,58,20.30
2017,08,30,15,59,20.40
2017,08,30,16,00,20.50
2017,08,30,16,01,20.60
2017,08,30,16,02,20.70
2017,08,30,16,03,20.80
2017,08,30,16,04,20.90
2017,08,30,16,05,20.90
2017,08,30,16,06,20.90
2017,08,30,16,07,20.70
2017,08,30,16,08,20.60
2017,08,30,16,09,20.40
2017,08,30,16,10,20.20
2017,08,30,16,11,20.00
2017,08,30,16,12,19.80
2017,08,30,16,13,19.60
2017,08,30,16,14,19.50
2017,08,30,16,15,19.50
2017,08,30,16,16,19.50
2017,08,30,16,17,19.60
2017,08,30,16,18,19.60
2017,08,30,16,19,19.60
2017,08,30,16,20,19.50
2017,08,30,16,21,19.40
2017,08,30,16,22,19.40
2017,08,30,16,23,19.40
2017,08,30,16,24,19.40
2017,08,30,16,25,19.40
2017,08,30,16,26,19.40
2017,08,30,16,27,19.50
2017,08,30,16,28,19.60
2017,08,30,16,29,19.60
2017,08,30,16,30,19.60
2017,08,30,16,31,19.60
2017,08,30,16,32,19.50
2017,08,30,16,33,19.40
2017,08,30,16,34,19.30
2017,08,30,16,35,19.20
2017,08,30,16,36,19.20
2017,08,30,16,37,19.20
2017,08,30,16,38,19.20
2017,08,30,16,39,19.10
2017,08,30,16,40,19.10
2017,08,30,16,41,19.10
2017,08,30,16,42,19.00
2017,08,30,16,43,19.00
2017,08,30,16,44,18.90
2017,08,30,16,45,18.90
2017,08,30,16,46,18.90
2017,08,30,16,47,18.90
2017,08,30,16,48,18.90
2017,08,30,16,49,18.80
2017,08,30,16,50,18.80
2017,08,30,16,51,18.80
2017,08,30,16,52,18.80
2017,08,30,16,53,18.90
2017,08,30,16,54,18.90
2017,08,30,16,55,18.90
2017,08,30,16,56,18.90
2017,08,30,16,57,18.90
2017,08,30,16,58,18.90
2017,08,30,16,59,19.00
2017,08,30,17,00,19.00
2017,08,30,17,01,19.00
2017,08,30,17,02,19.00
2017,08,30,17,03,19.00
2017,08,30,17,04,19.10
2017,08,30,17,05,19.10
2017,08,30,17,06,19.20
2017,08,30,17,07,19.20
2017,08,30,17,08,19.30
2017,08,30,17,09,19.30
2017,08,30,17,10,19.40
2017,08,30,17,11,19.40
2017,08,30,17,12,19.40
2017,08,30,17,13,19.40
2017,08,30,17,14,19.40
2017,08,30,17,15,19.40
2017,08,30,17,16,19.30
2017,08,30,17,17,19.30
2017,08,30,17,18,19.30
2017,08,30,17,19,19.30